Вернуться в каталог

COSMOS 397 DEB

АктивенLEO
NORAD 5197·DEBRIS·🇷🇺 Russia

Запущен Feb 25, 1971 с Baikonur Cosmodrome

Loading…

Ближайшие Пролёты (ближайшие 24 часа)

TLE

СвежийSource: Space-Track

Эпоха: Sep 14, 2026, 13:55 UTC

1 05197U 71015AT  26257.57992343  .00002027  00000-0  71105-3 0  9998
2 05197  65.5344 194.0179 0703780 323.5197  31.9784 13.48287143645858

Отслеживайте COSMOS 397 DEB в реальном времени с AllMySat

Download on the App Store